M I D A S
Marine Information and Data Acquisition System
Tripno 1906 of the Zeeleeuw from 2010-06-23 07:12:48 to 2010-06-23 14:53:10
Back to CruiseResearch ActivitiesStationsMapUnderway DataData graphs

EquipmentUnitsComments
TimeDGPSUTC
LatitudeDGPSDM.mWGS84
LongitudeDGPSDM.mWGS84
SpeedMeteo Stationm/sRelative wind speed
DirectionMeteo StationdegRelative wind direction
TemperatureMeteo Stationdeg CelciusAir temperature
PressureMeteo StationPaAtmospheric pressure
HumidityMeteo Station%Relative humidity
Missing or incorrect values are displayed as -999
Metereological data collected by the RV Zeeleeuw from 2010-06-23 06:39:38 to 2010-06-23 14:55:23
                                                                                    Next 1000 lines
Time Latitude Longitude Speed Direction Temperature Pressure Humidity
2010-06-23 06:39:48 51°13.662 2°55.962 -999 28 17.4 102240 41
2010-06-23 06:39:52 51°13.662 2°55.962 -999 358 17.4 102240 41
2010-06-23 06:39:57 51°13.662 2°55.963 -999 13 17.4 102240 41
2010-06-23 06:40:02 51°13.662 2°55.963 -999 360 17.4 102240 41
2010-06-23 06:40:07 51°13.662 2°55.963 -999 16 17.4 102240 41
2010-06-23 06:40:12 51°13.662 2°55.963 0.6 19 17.4 102240 41
2010-06-23 06:40:17 51°13.662 2°55.963 1.2 358 17.4 102240 41
2010-06-23 06:40:21 51°13.662 2°55.963 1.1 4 17.4 102240 41
2010-06-23 06:40:26 51°13.662 2°55.963 0.1 5 17.4 102240 41
2010-06-23 06:40:32 51°13.662 2°55.963 0.1 32 17.4 102240 42
2010-06-23 06:40:36 51°13.662 2°55.963 0.1 13 17.4 102240 42
2010-06-23 06:40:41 51°13.662 2°55.963 0.1 9 17.5 102240 41
2010-06-23 06:40:46 51°13.662 2°55.963 1 359 17.5 102240 41
2010-06-23 06:40:51 51°13.662 2°55.963 0.9 11 17.5 102240 41
2010-06-23 06:40:57 51°13.662 2°55.963 0.8 1 17.5 102240 41
2010-06-23 06:41:01 51°13.662 2°55.963 0.6 360 17.5 102240 41
2010-06-23 06:41:06 51°13.662 2°55.963 0.5 3 17.5 102240 41
2010-06-23 06:41:11 51°13.662 2°55.963 0.1 9 17.5 102240 40
2010-06-23 06:41:17 51°13.662 2°55.963 0.1 7 17.5 102240 40
2010-06-23 06:41:21 51°13.662 2°55.963 -999 2 17.5 102240 41
2010-06-23 06:41:26 51°13.662 2°55.963 -999 12 17.5 102240 41
2010-06-23 06:41:31 51°13.662 2°55.963 -999 8 17.5 102250 41
2010-06-23 06:41:37 51°13.662 2°55.963 -999 7 17.5 102250 41
2010-06-23 06:41:42 51°13.662 2°55.963 -999 360 17.5 102240 40
2010-06-23 06:41:46 51°13.662 2°55.963 -999 1 17.5 102240 40
2010-06-23 06:41:51 51°13.662 2°55.963 -999 4 17.5 102240 41
2010-06-23 06:41:57 51°13.662 2°55.963 -999 3 17.5 102240 41
2010-06-23 06:42:02 51°13.662 2°55.963 -999 5 17.5 102250 41
2010-06-23 06:42:06 51°13.662 2°55.963 -999 -999 17.5 102250 41
2010-06-23 06:42:11 51°13.662 2°55.963 -999 -999 17.5 102240 41
2010-06-23 06:42:16 51°13.662 2°55.963 -999 2 17.5 102240 41
2010-06-23 06:42:22 51°13.662 2°55.962 -999 358 17.5 102240 41
2010-06-23 06:42:26 51°13.662 2°55.962 -999 5 17.5 102240 41
2010-06-23 06:42:31 51°13.662 2°55.962 -999 5 17.5 102250 41
2010-06-23 06:42:37 51°13.662 2°55.962 -999 3 17.5 102250 41
2010-06-23 06:42:41 51°13.662 2°55.962 -999 5 17.5 102240 41
2010-06-23 06:42:46 51°13.662 2°55.962 -999 7 17.5 102240 41
2010-06-23 06:42:51 51°13.662 2°55.962 -999 4 17.5 102240 41
2010-06-23 06:42:57 51°13.662 2°55.962 -999 5 17.5 102240 41
2010-06-23 06:43:02 51°13.662 2°55.962 -999 11 17.5 102240 41
2010-06-23 06:43:06 51°13.662 2°55.962 -999 14 17.5 102240 41
2010-06-23 06:43:11 51°13.662 2°55.962 -999 18 17.6 102240 41
2010-06-23 06:43:17 51°13.662 2°55.962 -999 29 17.6 102240 41
2010-06-23 06:43:21 51°13.662 2°55.962 -999 25 17.5 102240 41
2010-06-23 06:43:26 51°13.662 2°55.962 -999 22 17.5 102240 41
2010-06-23 06:43:31 51°13.662 2°55.962 -999 359 17.5 102250 41
2010-06-23 06:43:37 51°13.661 2°55.962 -999 358 17.5 102250 41
2010-06-23 06:43:41 51°13.661 2°55.962 -999 5 17.6 102250 41
2010-06-23 06:43:46 51°13.661 2°55.962 -999 8 17.6 102250 41
2010-06-23 06:43:51 51°13.661 2°55.962 -999 16 17.6 102240 41
2010-06-23 06:43:57 51°13.661 2°55.962 -999 14 17.6 102240 41
2010-06-23 06:44:01 51°13.661 2°55.962 -999 16 17.6 102240 41
2010-06-23 06:44:06 51°13.661 2°55.962 -999 15 17.6 102240 41
2010-06-23 06:44:11 51°13.661 2°55.962 -999 32 17.6 102240 41
2010-06-23 06:44:17 51°13.661 2°55.961 -999 34 17.6 102240 41
2010-06-23 06:44:22 51°13.661 2°55.962 -999 -999 17.6 102240 40
2010-06-23 06:44:26 51°13.661 2°55.962 -999 9 17.6 102240 40
2010-06-23 06:44:31 51°13.661 2°55.962 -999 360 17.6 102250 41
2010-06-23 06:44:36 51°13.662 2°55.962 -999 347 17.6 102250 41
2010-06-23 06:44:42 51°13.662 2°55.962 -999 350 17.6 102240 41
2010-06-23 06:44:46 51°13.662 2°55.962 -999 354 17.6 102240 41
2010-06-23 06:44:51 51°13.662 2°55.961 -999 358 17.6 102250 41
2010-06-23 06:44:57 51°13.662 2°55.961 -999 352 17.6 102250 41
2010-06-23 06:45:01 51°13.662 2°55.961 -999 359 17.6 102240 41
2010-06-23 06:45:06 51°13.662 2°55.961 -999 357 17.6 102240 41
2010-06-23 06:45:11 51°13.662 2°55.961 -999 341 17.6 102240 41
2010-06-23 06:45:16 51°13.662 2°55.961 -999 354 17.6 102240 41
2010-06-23 06:45:21 51°13.662 2°55.961 -999 354 17.7 102240 41
2010-06-23 06:45:26 51°13.662 2°55.961 -999 354 17.7 102240 41
2010-06-23 06:45:31 51°13.662 2°55.961 -999 352 17.7 102240 41
2010-06-23 06:45:36 51°13.661 2°55.961 -999 3 17.7 102240 41
2010-06-23 06:45:41 51°13.661 2°55.961 -999 5 17.7 102240 41
2010-06-23 06:45:46 51°13.661 2°55.961 -999 7 17.7 102240 41
2010-06-23 06:45:51 51°13.661 2°55.961 -999 8 17.7 102240 41
2010-06-23 06:45:56 51°13.661 2°55.961 -999 357 17.7 102240 41
2010-06-23 06:46:01 51°13.661 2°55.961 -999 359 17.7 102240 41
2010-06-23 06:46:06 51°13.661 2°55.961 -999 2 17.7 102240 41
2010-06-23 06:46:11 51°13.662 2°55.961 0.6 4 17.8 102240 41
2010-06-23 06:46:16 51°13.662 2°55.961 0.1 3 17.8 102240 41
2010-06-23 06:46:22 51°13.661 2°55.961 1.2 -999 17.8 102240 41
2010-06-23 06:46:26 51°13.661 2°55.961 0.7 353 17.8 102240 41
2010-06-23 06:46:31 51°13.661 2°55.961 0.6 358 17.8 102240 41
2010-06-23 06:46:36 51°13.661 2°55.961 0.2 6 17.8 102240 41
2010-06-23 06:46:42 51°13.661 2°55.961 0.1 6 17.8 102240 40
2010-06-23 06:46:46 51°13.661 2°55.961 0.1 5 17.8 102240 40
2010-06-23 06:46:51 51°13.661 2°55.961 -999 15 17.8 102240 41
2010-06-23 06:46:56 51°13.661 2°55.961 -999 16 17.8 102240 41
2010-06-23 06:47:02 51°13.661 2°55.961 -999 15 17.8 102240 40
2010-06-23 06:47:06 51°13.661 2°55.961 -999 10 17.8 102240 40
2010-06-23 06:47:11 51°13.661 2°55.961 -999 7 17.8 102240 41
2010-06-23 06:47:16 51°13.661 2°55.961 -999 4 17.8 102240 41
2010-06-23 06:47:21 51°13.661 2°55.961 -999 13 17.8 102240 41
2010-06-23 06:47:26 51°13.661 2°55.961 -999 16 17.8 102240 41
2010-06-23 06:47:31 51°13.661 2°55.961 -999 9 17.8 102240 41
2010-06-23 06:47:36 51°13.661 2°55.961 1.4 14 17.8 102240 41
2010-06-23 06:47:41 51°13.661 2°55.961 1 8 17.8 102240 41
2010-06-23 06:47:46 51°13.661 2°55.961 0.3 359 17.8 102240 41
2010-06-23 06:47:51 51°13.661 2°55.961 0.1 4 17.8 102250 41
2010-06-23 06:47:56 51°13.661 2°55.961 0.1 -999 17.8 102250 41
2010-06-23 06:48:01 51°13.662 2°55.961 -999 359 17.8 102240 41
2010-06-23 06:48:06 51°13.662 2°55.961 -999 356 17.8 102240 41
2010-06-23 06:48:11 51°13.662 2°55.961 -999 6 17.8 102250 41
2010-06-23 06:48:16 51°13.662 2°55.961 0.9 335 17.8 102250 41
2010-06-23 06:48:21 51°13.662 2°55.961 1.2 349 17.8 102240 41
2010-06-23 06:48:26 51°13.661 2°55.961 1.1 355 17.8 102240 41
2010-06-23 06:48:31 51°13.662 2°55.961 1.2 355 17.8 102250 41
2010-06-23 06:48:37 51°13.661 2°55.961 0.8 356 17.8 102250 41
2010-06-23 06:48:41 51°13.661 2°55.961 0.2 15 17.8 102250 40
2010-06-23 06:48:46 51°13.661 2°55.961 1.1 4 17.8 102250 40
2010-06-23 06:48:51 51°13.661 2°55.961 1.6 13 17.8 102250 40
2010-06-23 06:48:57 51°13.661 2°55.961 3 6 17.8 102250 40
2010-06-23 06:49:01 51°13.661 2°55.961 1.6 7 17.8 102240 41
2010-06-23 06:49:06 51°13.661 2°55.961 0.7 1 17.8 102240 41
2010-06-23 06:49:11 51°13.661 2°55.961 1.1 3 17.8 102240 41
2010-06-23 06:49:16 51°13.661 2°55.961 1.7 3 17.8 102240 41
2010-06-23 06:49:22 51°13.661 2°55.961 2 360 17.8 102240 40
2010-06-23 06:49:26 51°13.661 2°55.961 2.3 357 17.8 102240 40
2010-06-23 06:49:31 51°13.661 2°55.961 1.6 2 17.8 102240 40
2010-06-23 06:49:36 51°13.661 2°55.961 1.2 9 17.8 102240 40
2010-06-23 06:49:41 51°13.661 2°55.961 1 360 17.8 102240 39
2010-06-23 06:49:46 51°13.661 2°55.961 1.3 14 17.8 102240 39
2010-06-23 06:49:51 51°13.661 2°55.961 1.1 8 17.8 102240 40
2010-06-23 06:49:56 51°13.661 2°55.961 1.4 353 17.8 102240 40
2010-06-23 06:50:01 51°13.662 2°55.961 1.3 352 17.8 102250 40
2010-06-23 06:50:06 51°13.661 2°55.962 0.9 359 17.8 102250 40
2010-06-23 06:50:11 51°13.661 2°55.962 0.8 13 17.8 102240 41
2010-06-23 06:50:16 51°13.661 2°55.962 0.9 2 17.8 102240 41
2010-06-23 06:50:21 51°13.661 2°55.962 0.9 6 17.8 102240 41
2010-06-23 06:50:26 51°13.661 2°55.962 0.5 10 17.8 102240 41
2010-06-23 06:50:31 51°13.661 2°55.962 1 350 17.8 102240 40
2010-06-23 06:50:36 51°13.662 2°55.962 0.9 2 17.8 102240 40
2010-06-23 06:50:41 51°13.662 2°55.962 0.2 3 17.8 102240 40
2010-06-23 06:50:46 51°13.662 2°55.962 0.1 9 17.8 102240 40
2010-06-23 06:50:51 51°13.662 2°55.962 -999 9 17.8 102250 41
2010-06-23 06:50:56 51°13.662 2°55.962 -999 360 17.8 102250 41
2010-06-23 06:51:01 51°13.662 2°55.962 -999 1 17.8 102250 41
2010-06-23 06:51:06 51°13.662 2°55.962 -999 22 17.8 102250 41
2010-06-23 06:51:10 51°13.662 2°55.962 -999 15 17.9 102250 41
2010-06-23 06:51:16 51°13.662 2°55.962 -999 17 17.9 102250 41
2010-06-23 06:51:21 51°13.662 2°55.962 -999 21 17.9 102250 41
2010-06-23 06:51:26 51°13.662 2°55.962 -999 14 17.9 102250 41
2010-06-23 06:51:30 51°13.662 2°55.962 -999 5 17.9 102250 41
2010-06-23 06:51:37 51°13.661 2°55.962 -999 8 17.9 102250 41
2010-06-23 06:51:42 51°13.662 2°55.962 -999 8 17.9 102250 41
2010-06-23 06:51:46 51°13.661 2°55.962 -999 5 17.9 102250 41
2010-06-23 06:51:50 51°13.661 2°55.962 -999 11 17.9 102240 41
2010-06-23 06:51:56 51°13.661 2°55.962 -999 10 17.9 102240 41
2010-06-23 06:52:01 51°13.661 2°55.962 -999 339 17.9 102240 40
2010-06-23 06:52:06 51°13.661 2°55.962 -999 351 17.9 102240 40
2010-06-23 06:52:10 51°13.661 2°55.962 -999 -999 17.9 102250 40
2010-06-23 06:52:16 51°13.661 2°55.962 -999 357 17.9 102250 40
2010-06-23 06:52:21 51°13.661 2°55.962 -999 10 17.9 102250 40
2010-06-23 06:52:26 51°13.661 2°55.962 0.9 17 17.9 102250 40
2010-06-23 06:52:30 51°13.661 2°55.962 1.3 15 17.9 102250 41
2010-06-23 06:52:36 51°13.661 2°55.962 1.2 18 17.9 102250 41
2010-06-23 06:52:42 51°13.661 2°55.962 0.6 8 17.9 102250 40
2010-06-23 06:52:47 51°13.661 2°55.962 0.1 9 17.9 102250 40
2010-06-23 06:52:51 51°13.66 2°55.962 0.1 8 17.9 102250 40
2010-06-23 06:52:56 51°13.66 2°55.962 -999 9 17.9 102250 40
2010-06-23 06:53:01 51°13.66 2°55.962 -999 356 17.9 102250 40
2010-06-23 06:53:07 51°13.66 2°55.962 -999 3 17.9 102250 40
2010-06-23 06:53:11 51°13.66 2°55.962 -999 3 17.9 102250 40
2010-06-23 06:53:16 51°13.66 2°55.962 -999 2 17.9 102250 40
2010-06-23 06:53:21 51°13.66 2°55.962 -999 22 17.9 102250 40
2010-06-23 06:53:27 51°13.66 2°55.962 -999 28 17.9 102250 40
2010-06-23 06:53:31 51°13.66 2°55.962 0.2 31 18 102250 40
2010-06-23 06:53:36 51°13.66 2°55.961 0.1 24 18 102250 40
2010-06-23 06:53:42 51°13.66 2°55.959 0.1 26 18 102250 40
2010-06-23 06:53:47 51°13.661 2°55.958 -999 26 18 102250 40
2010-06-23 06:53:51 51°13.661 2°55.956 -999 28 18 102250 40
2010-06-23 06:53:57 51°13.663 2°55.953 -999 38 18 102250 40
2010-06-23 06:54:01 51°13.663 2°55.95 -999 34 18 102250 40
2010-06-23 06:54:07 51°13.665 2°55.946 -999 29 18 102250 40
2010-06-23 06:54:13 51°13.667 2°55.941 0.6 25 18 102250 40
2010-06-23 06:54:19 51°13.669 2°55.935 0.3 30 18 102250 40
2010-06-23 06:54:24 51°13.67 2°55.929 0.1 32 18 102250 40
2010-06-23 06:54:30 51°13.672 2°55.923 0.1 34 18 102250 40
2010-06-23 06:54:35 51°13.674 2°55.917 -999 33 18 102250 41
2010-06-23 06:54:40 51°13.676 2°55.91 -999 39 18 102250 41
2010-06-23 06:54:45 51°13.677 2°55.903 -999 36 18 102250 40
2010-06-23 06:54:50 51°13.679 2°55.896 -999 40 18 102250 40
2010-06-23 06:54:55 51°13.681 2°55.888 0.1 37 18 102250 40
2010-06-23 06:55:00 51°13.683 2°55.88 1.3 38 18 102250 40
2010-06-23 06:55:05 51°13.684 2°55.872 2.5 38 18 102250 40
2010-06-23 06:55:10 51°13.686 2°55.864 1.8 43 18 102250 40
2010-06-23 06:55:15 51°13.687 2°55.856 2.4 22 18 102250 40
2010-06-23 06:55:20 51°13.689 2°55.847 2.1 43 18 102250 40
2010-06-23 06:55:25 51°13.69 2°55.838 2.7 40 18 102250 39
2010-06-23 06:55:30 51°13.691 2°55.83 2.6 36 18 102250 39
2010-06-23 06:55:35 51°13.692 2°55.821 2.8 41 18 102250 40
2010-06-23 06:55:40 51°13.693 2°55.812 2.1 38 18 102250 40
2010-06-23 06:55:45 51°13.694 2°55.803 2.3 38 18 102250 40
2010-06-23 06:55:50 51°13.695 2°55.795 1.5 43 18 102250 40
2010-06-23 06:55:55 51°13.696 2°55.787 1.6 42 18 102250 40
2010-06-23 06:56:00 51°13.696 2°55.78 1.9 60 18 102250 40
2010-06-23 06:56:05 51°13.697 2°55.772 1.9 39 18 102250 40
2010-06-23 06:56:10 51°13.697 2°55.765 1.9 35 18 102250 40
2010-06-23 06:56:15 51°13.697 2°55.758 1.7 24 18 102250 41
2010-06-23 06:56:19 51°13.697 2°55.753 2.8 45 18 102250 41
2010-06-23 06:56:24 51°13.697 2°55.746 2.2 28 18 102250 41
2010-06-23 06:56:30 51°13.697 2°55.739 1.9 53 18 102250 41
2010-06-23 06:56:35 51°13.697 2°55.734 2 42 18 102250 41
2010-06-23 06:56:39 51°13.697 2°55.731 1.9 42 18 102250 41
2010-06-23 06:56:44 51°13.697 2°55.728 1.8 42 18 102250 40
2010-06-23 06:56:49 51°13.697 2°55.727 2 34 18 102250 40
2010-06-23 06:56:54 51°13.698 2°55.727 1.5 38 18 102250 39
2010-06-23 06:56:59 51°13.699 2°55.727 1.3 40 18 102250 39
2010-06-23 06:57:04 51°13.699 2°55.729 1 24 18 102250 40
2010-06-23 06:57:09 51°13.701 2°55.731 0.3 53 18 102250 40
2010-06-23 06:57:14 51°13.703 2°55.734 0.1 24 18 102250 41
2010-06-23 06:57:19 51°13.706 2°55.736 0.1 51 18 102250 41
2010-06-23 06:57:23 51°13.708 2°55.737 0.8 25 18 102250 40
2010-06-23 06:57:28 51°13.71 2°55.739 0.6 52 18 102250 40
2010-06-23 06:57:33 51°13.713 2°55.741 0.5 24 18.1 102250 40
2010-06-23 06:57:39 51°13.716 2°55.742 0.1 55 18.1 102250 40
2010-06-23 06:57:43 51°13.719 2°55.742 0.1 25 18.1 102250 39
2010-06-23 06:57:48 51°13.721 2°55.743 0.3 60 18.1 102250 39
2010-06-23 06:57:53 51°13.722 2°55.743 0.5 29 18.1 102250 40
2010-06-23 06:57:58 51°13.723 2°55.744 0.4 54 18.1 102250 40
2010-06-23 06:58:03 51°13.723 2°55.744 1 23 18.1 102250 40
2010-06-23 06:58:08 51°13.723 2°55.744 1.3 60 18.1 102250 40
2010-06-23 06:58:13 51°13.722 2°55.744 2.4 24 18.1 102250 40
2010-06-23 06:58:18 51°13.721 2°55.743 2.3 60 18.1 102250 40
2010-06-23 06:58:23 51°13.72 2°55.744 2.5 29 18.1 102250 40
2010-06-23 06:58:27 51°13.719 2°55.744 1.7 54 18.1 102250 40
2010-06-23 06:58:33 51°13.718 2°55.744 1.4 23 18.1 102250 40
2010-06-23 06:58:39 51°13.718 2°55.744 1.9 52 18.1 102250 40
2010-06-23 06:58:44 51°13.719 2°55.744 1.5 29 18.1 102250 40
2010-06-23 06:58:50 51°13.72 2°55.744 0.2 52 18.1 102250 40
2010-06-23 06:58:55 51°13.721 2°55.743 0.1 24 18.1 102250 40
2010-06-23 06:59:00 51°13.722 2°55.742 0.9 312 18.1 102250 40
2010-06-23 06:59:05 51°13.725 2°55.741 0.5 269 18.1 102250 39
2010-06-23 06:59:10 51°13.727 2°55.739 0.6 305 18.1 102250 39
2010-06-23 06:59:15 51°13.73 2°55.736 0.2 263 18.1 102250 40
2010-06-23 06:59:19 51°13.732 2°55.734 1.5 304 18.1 102250 40
2010-06-23 06:59:24 51°13.736 2°55.73 1.5 257 18.1 102250 40
2010-06-23 06:59:29 51°13.74 2°55.726 1.4 303 18.1 102250 40
2010-06-23 06:59:34 51°13.744 2°55.722 1.5 24 18.1 102240 39
2010-06-23 06:59:39 51°13.748 2°55.717 1.5 303 18.1 102240 39
2010-06-23 06:59:43 51°13.752 2°55.713 0.8 262 18.2 102250 41
2010-06-23 06:59:48 51°13.757 2°55.707 1.2 310 18.2 102250 41
2010-06-23 06:59:53 51°13.761 2°55.702 0.3 247 18.2 102240 41
2010-06-23 06:59:58 51°13.766 2°55.697 0.1 305 18.2 102240 41
2010-06-23 07:00:03 51°13.771 2°55.691 0.1 269 18.2 102250 40
2010-06-23 07:00:07 51°13.776 2°55.686 0.1 306 18.2 102250 40
2010-06-23 07:00:12 51°13.782 2°55.68 0.1 260 18.2 102250 40
2010-06-23 07:00:17 51°13.788 2°55.673 -999 306 18.2 102250 40
2010-06-23 07:00:22 51°13.794 2°55.667 -999 262 18.3 102250 39
2010-06-23 07:00:27 51°13.801 2°55.661 -999 305 18.3 102250 39
2010-06-23 07:00:31 51°13.806 2°55.657 -999 25 18.3 102250 40
2010-06-23 07:00:37 51°13.814 2°55.651 -999 305 18.3 102250 40
2010-06-23 07:00:42 51°13.821 2°55.647 -999 25 18.3 102250 40
2010-06-23 07:00:47 51°13.828 2°55.644 -999 305 18.3 102250 40
2010-06-23 07:00:51 51°13.833 2°55.641 -999 352 18.3 102250 40
2010-06-23 07:00:56 51°13.84 2°55.639 -999 347 18.3 102250 40
2010-06-23 07:01:01 51°13.846 2°55.637 -999 24 18.3 102250 40
2010-06-23 07:01:06 51°13.852 2°55.635 -999 305 18.3 102250 40
2010-06-23 07:01:11 51°13.858 2°55.634 -999 24 18.3 102250 40
2010-06-23 07:01:16 51°13.864 2°55.633 -999 352 18.3 102250 40
2010-06-23 07:01:21 51°13.87 2°55.633 -999 323 18.4 102250 40
2010-06-23 07:01:26 51°13.875 2°55.633 -999 333 18.4 102250 40
2010-06-23 07:01:31 51°13.881 2°55.633 -999 334 18.4 102250 40
2010-06-23 07:01:36 51°13.886 2°55.633 -999 336 18.4 102250 40
2010-06-23 07:01:41 51°13.891 2°55.634 -999 329 18.4 102250 40
2010-06-23 07:01:46 51°13.896 2°55.634 -999 305 18.4 102250 40
2010-06-23 07:01:51 51°13.901 2°55.635 -999 25 18.4 102250 41
2010-06-23 07:01:55 51°13.904 2°55.635 -999 305 18.4 102250 41
2010-06-23 07:02:01 51°13.91 2°55.636 -999 25 18.4 102250 40
2010-06-23 07:02:06 51°13.915 2°55.637 -999 305 18.4 102250 40
2010-06-23 07:02:11 51°13.92 2°55.638 -999 25 18.5 102250 40
2010-06-23 07:02:16 51°13.925 2°55.639 -999 305 18.5 102250 40
2010-06-23 07:02:21 51°13.93 2°55.639 -999 24 18.5 102250 40
2010-06-23 07:02:26 51°13.934 2°55.64 -999 305 18.5 102250 40
2010-06-23 07:02:31 51°13.938 2°55.64 0.1 259 18.5 102250 40
2010-06-23 07:02:36 51°13.941 2°55.64 0.1 306 18.5 102250 40
2010-06-23 07:02:41 51°13.944 2°55.639 0.1 251 18.5 102250 40
2010-06-23 07:02:46 51°13.946 2°55.639 -999 306 18.5 102250 40
2010-06-23 07:02:51 51°13.949 2°55.638 -999 256 18.6 102250 40
2010-06-23 07:02:55 51°13.951 2°55.638 -999 306 18.6 102250 40
2010-06-23 07:03:01 51°13.953 2°55.637 -999 260 18.6 102250 39
2010-06-23 07:03:06 51°13.955 2°55.636 -999 306 18.6 102250 39
2010-06-23 07:03:11 51°13.957 2°55.635 -999 263 18.6 102250 40
2010-06-23 07:03:16 51°13.959 2°55.634 -999 305 18.6 102250 40
2010-06-23 07:03:21 51°13.961 2°55.633 -999 34 18.6 102250 40
2010-06-23 07:03:26 51°13.963 2°55.632 -999 56 18.6 102250 40
2010-06-23 07:03:31 51°13.965 2°55.631 -999 268 18.6 102250 40
2010-06-23 07:03:35 51°13.966 2°55.63 -999 305 18.6 102250 40
2010-06-23 07:03:41 51°13.968 2°55.629 -999 261 18.6 102250 40
2010-06-23 07:03:46 51°13.97 2°55.628 -999 305 18.6 102250 40
2010-06-23 07:03:51 51°13.972 2°55.626 -999 259 18.7 102250 40
2010-06-23 07:03:55 51°13.973 2°55.626 -999 305 18.7 102250 40
2010-06-23 07:04:01 51°13.975 2°55.624 -999 265 18.7 102250 40
2010-06-23 07:04:06 51°13.977 2°55.623 -999 305 18.7 102250 40
2010-06-23 07:04:11 51°13.978 2°55.622 -999 254 18.7 102250 40
2010-06-23 07:04:16 51°13.979 2°55.621 -999 60 18.7 102250 40
2010-06-23 07:04:21 51°13.981 2°55.62 -999 30 18.7 102250 39
2010-06-23 07:04:26 51°13.982 2°55.619 0.1 307 18.7 102250 39
2010-06-23 07:04:31 51°13.983 2°55.618 0.1 260 18.7 102250 39
2010-06-23 07:04:36 51°13.985 2°55.617 0.1 306 18.7 102250 39
2010-06-23 07:04:41 51°13.986 2°55.616 0.3 252 18.7 102250 39
2010-06-23 07:04:46 51°13.987 2°55.615 0.1 305 18.7 102250 39
2010-06-23 07:04:51 51°13.988 2°55.614 0.6 20 18.8 102250 39
2010-06-23 07:04:56 51°13.989 2°55.614 1.3 303 18.8 102250 39
2010-06-23 07:05:01 51°13.989 2°55.613 0.5 34 18.8 102250 39
2010-06-23 07:05:06 51°13.991 2°55.612 0.2 306 18.8 102250 39
2010-06-23 07:05:11 51°13.991 2°55.611 0.1 263 18.8 102250 39
2010-06-23 07:05:16 51°13.992 2°55.61 -999 305 18.8 102250 39
2010-06-23 07:05:21 51°13.993 2°55.609 -999 30 18.8 102250 39
2010-06-23 07:05:26 51°13.994 2°55.609 -999 305 18.8 102250 39
2010-06-23 07:05:31 51°13.994 2°55.608 -999 262 18.8 102250 39
2010-06-23 07:05:35 51°13.995 2°55.608 0.1 310 18.8 102250 39
2010-06-23 07:05:41 51°13.995 2°55.608 0.7 261 18.8 102250 38
2010-06-23 07:05:46 51°13.996 2°55.607 0.4 308 18.8 102250 38
2010-06-23 07:05:51 51°13.996 2°55.606 0.2 261 18.8 102250 39
2010-06-23 07:05:56 51°13.997 2°55.606 0.1 305 18.8 102250 39
2010-06-23 07:06:01 51°13.998 2°55.605 0.1 264 18.8 102250 39
2010-06-23 07:06:06 51°13.998 2°55.605 -999 300 18.8 102250 39
2010-06-23 07:06:11 51°13.998 2°55.604 0.7 266 18.8 102250 39
2010-06-23 07:06:16 51°13.999 2°55.604 0.5 304 18.8 102250 39
2010-06-23 07:06:20 51°13.999 2°55.604 1.1 265 18.9 102250 39
2010-06-23 07:06:26 51°13.999 2°55.604 1.9 298 18.9 102250 39
2010-06-23 07:06:31 51°14 2°55.604 1.6 265 18.9 102250 39
2010-06-23 07:06:37 51°14 2°55.604 0.4 308 18.9 102250 39
2010-06-23 07:06:42 51°14 2°55.603 0.2 263 18.9 102250 38
2010-06-23 07:06:46 51°14.001 2°55.603 0.1 306 18.9 102250 38
2010-06-23 07:06:51 51°14.001 2°55.603 -999 265 18.9 102250 38
2010-06-23 07:06:56 51°14.001 2°55.603 -999 306 18.9 102250 38
2010-06-23 07:07:02 51°14.001 2°55.603 -999 265 18.9 102250 39
2010-06-23 07:07:06 51°14.002 2°55.603 -999 305 18.9 102250 39
2010-06-23 07:07:11 51°14.002 2°55.603 -999 263 18.9 102250 39
2010-06-23 07:07:15 51°14.002 2°55.603 -999 305 18.9 102250 39
2010-06-23 07:07:20 51°14.002 2°55.603 -999 265 18.9 102250 39
2010-06-23 07:07:26 51°14.002 2°55.604 -999 59 18.9 102250 39
2010-06-23 07:07:31 51°14.002 2°55.604 -999 27 18.9 102250 39
2010-06-23 07:07:36 51°14.002 2°55.604 -999 9 18.9 102250 39
2010-06-23 07:07:41 51°14.002 2°55.604 -999 269 18.9 102250 39
2010-06-23 07:07:46 51°14.002 2°55.604 0.1 55 18.9 102250 39
2010-06-23 07:07:52 51°14.003 2°55.604 0.3 26 18.9 102250 39
2010-06-23 07:07:55 51°14.003 2°55.604 0.1 55 18.9 102250 39
2010-06-23 07:08:01 51°14.004 2°55.603 0.1 270 18.9 102250 39
2010-06-23 07:08:06 51°14.005 2°55.601 -999 306 18.9 102250 39
2010-06-23 07:08:12 51°14.007 2°55.598 -999 261 18.9 102250 38
2010-06-23 07:08:16 51°14.009 2°55.596 -999 305 18.9 102250 38
2010-06-23 07:08:21 51°14.012 2°55.592 -999 25 18.9 102250 38
2010-06-23 07:08:26 51°14.016 2°55.587 -999 305 18.9 102250 38
2010-06-23 07:08:31 51°14.019 2°55.582 1.3 23 18.9 102250 38
2010-06-23 07:08:36 51°14.023 2°55.575 1.9 303 18.9 102250 38
2010-06-23 07:08:41 51°14.028 2°55.569 2.5 22 18.9 102250 39
2010-06-23 07:08:46 51°14.032 2°55.561 3 302 18.9 102250 39
2010-06-23 07:08:51 51°14.038 2°55.553 2.9 22 19 102250 38
2010-06-23 07:08:56 51°14.043 2°55.544 3.4 306 19 102250 38
2010-06-23 07:09:01 51°14.048 2°55.535 3.4 22 19 102250 38
2010-06-23 07:09:06 51°14.054 2°55.526 2 303 19 102250 38
2010-06-23 07:09:12 51°14.061 2°55.514 2.9 27 19 102250 39
2010-06-23 07:09:16 51°14.067 2°55.506 3.1 309 19 102250 39
2010-06-23 07:09:21 51°14.073 2°55.496 3.5 21 18.9 102250 39
2010-06-23 07:09:27 51°14.082 2°55.484 3.3 302 18.9 102250 39
2010-06-23 07:09:31 51°14.088 2°55.476 2.6 23 18.9 102250 37
2010-06-23 07:09:36 51°14.095 2°55.467 2.4 307 18.9 102250 37
2010-06-23 07:09:41 51°14.103 2°55.458 1.9 26 19 102250 37
2010-06-23 07:09:47 51°14.113 2°55.448 2.2 306 19 102250 37
2010-06-23 07:09:52 51°14.121 2°55.439 1.9 28 19 102250 37
2010-06-23 07:09:56 51°14.128 2°55.432 1.6 321 19 102250 37
2010-06-23 07:10:01 51°14.136 2°55.423 1.8 27 19 102250 37
2010-06-23 07:10:07 51°14.147 2°55.413 1.7 309 19 102250 37
2010-06-23 07:10:12 51°14.155 2°55.404 2 29 19 102250 37
2010-06-23 07:10:17 51°14.163 2°55.395 1.9 304 19 102250 37
2010-06-23 07:10:22 51°14.172 2°55.386 2.1 325 18.9 102250 39
2010-06-23 07:10:27 51°14.18 2°55.378 2.8 306 18.9 102250 39
2010-06-23 07:10:32 51°14.189 2°55.369 4.1 316 19 102250 39
2010-06-23 07:10:36 51°14.196 2°55.363 3.4 308 19 102250 39
2010-06-23 07:10:42 51°14.206 2°55.353 2.6 315 19 102250 37
2010-06-23 07:10:47 51°14.214 2°55.345 3.5 306 19 102250 37
2010-06-23 07:10:51 51°14.221 2°55.338 3.6 25 19 102250 37
2010-06-23 07:10:56 51°14.23 2°55.33 3.2 301 19 102250 37
2010-06-23 07:11:01 51°14.239 2°55.322 3.3 318 19 102250 38
2010-06-23 07:11:06 51°14.247 2°55.314 4.3 308 19 102250 38
2010-06-23 07:11:11 51°14.256 2°55.305 4.5 30 19 102250 37
2010-06-23 07:11:16 51°14.266 2°55.296 5.3 309 19 102250 37
2010-06-23 07:11:21 51°14.277 2°55.286 4.8 30 19 102250 38
2010-06-23 07:11:26 51°14.288 2°55.275 3.5 304 19 102250 38
2010-06-23 07:11:31 51°14.299 2°55.264 5.2 21 19 102250 38
2010-06-23 07:11:36 51°14.311 2°55.253 4.1 301 19 102250 38
2010-06-23 07:11:41 51°14.324 2°55.241 4.6 24 18.9 102240 37
2010-06-23 07:11:46 51°14.336 2°55.228 5.4 283 18.9 102240 37
2010-06-23 07:11:51 51°14.349 2°55.215 4.6 21 19 102240 39
2010-06-23 07:11:56 51°14.362 2°55.202 4.6 307 19 102240 39
2010-06-23 07:12:01 51°14.375 2°55.188 4.8 316 18.9 102240 38
2010-06-23 07:12:06 51°14.388 2°55.175 4.7 308 18.9 102240 38
2010-06-23 07:12:11 51°14.401 2°55.161 4.6 316 18.9 102240 39
2010-06-23 07:12:16 51°14.415 2°55.147 5 307 18.9 102240 39
2010-06-23 07:12:21 51°14.428 2°55.134 4.9 24 18.9 102250 40
2010-06-23 07:12:26 51°14.442 2°55.12 5.5 303 18.9 102250 40
2010-06-23 07:12:32 51°14.458 2°55.103 5.5 28 18.9 102250 40
2010-06-23 07:12:36 51°14.469 2°55.092 5.4 309 18.9 102250 40
2010-06-23 07:12:41 51°14.482 2°55.077 5.8 23 18.8 102240 38
2010-06-23 07:12:46 51°14.496 2°55.063 5 308 18.8 102240 38
2010-06-23 07:12:51 51°14.509 2°55.048 5.5 22 18.8 102240 38
2010-06-23 07:12:56 51°14.523 2°55.033 5.4 303 18.8 102240 38
2010-06-23 07:13:01 51°14.537 2°55.018 5.5 22 18.7 102240 38
2010-06-23 07:13:06 51°14.55 2°55.003 4.7 307 18.7 102240 38
2010-06-23 07:13:11 51°14.564 2°54.988 5.3 25 18.7 102240 38
2010-06-23 07:13:16 51°14.578 2°54.973 4.7 305 18.7 102240 38
2010-06-23 07:13:21 51°14.592 2°54.959 4.8 30 18.6 102240 39
2010-06-23 07:13:26 51°14.606 2°54.946 5 309 18.6 102240 39
2010-06-23 07:13:31 51°14.62 2°54.932 4.7 26 18.6 102240 38
2010-06-23 07:13:36 51°14.634 2°54.918 4.7 303 18.6 102240 38
2010-06-23 07:13:41 51°14.648 2°54.904 4.9 28 18.6 102240 37
2010-06-23 07:13:46 51°14.662 2°54.89 5 306 18.6 102240 37
2010-06-23 07:13:52 51°14.679 2°54.873 5.1 315 18.6 102240 39
2010-06-23 07:13:56 51°14.69 2°54.862 5.3 305 18.6 102240 39
2010-06-23 07:14:01 51°14.704 2°54.847 5.2 29 18.5 102250 39
2010-06-23 07:14:07 51°14.721 2°54.83 5 309 18.5 102250 39
2010-06-23 07:14:11 51°14.732 2°54.818 5 316 18.5 102240 40
2010-06-23 07:14:16 51°14.745 2°54.803 5.4 302 18.5 102240 40
2010-06-23 07:14:21 51°14.759 2°54.789 4.9 316 18.5 102240 41
2010-06-23 07:14:26 51°14.773 2°54.774 5 307 18.5 102240 41
2010-06-23 07:14:32 51°14.79 2°54.756 5.1 316 18.5 102250 41
2010-06-23 07:14:36 51°14.801 2°54.744 5 307 18.5 102250 41
2010-06-23 07:14:41 51°14.816 2°54.728 5.3 316 18.5 102240 40
2010-06-23 07:14:46 51°14.831 2°54.713 5.3 309 18.5 102240 40
2010-06-23 07:14:52 51°14.849 2°54.695 5.4 317 18.5 102240 40
2010-06-23 07:14:56 51°14.861 2°54.683 5.4 301 18.5 102240 40
2010-06-23 07:15:01 51°14.876 2°54.667 5.4 316 18.4 102240 40
2010-06-23 07:15:06 51°14.891 2°54.651 5.2 303 18.4 102240 40
2010-06-23 07:15:12 51°14.909 2°54.631 5.6 316 18.4 102240 40
2010-06-23 07:15:16 51°14.921 2°54.618 5.8 309 18.4 102240 40
2010-06-23 07:15:22 51°14.939 2°54.597 5.6 316 18.3 102240 41
2010-06-23 07:15:27 51°14.953 2°54.581 5.7 307 18.3 102240 41
2010-06-23 07:15:32 51°14.968 2°54.563 5.7 22 18.3 102240 41
2010-06-23 07:15:36 51°14.979 2°54.549 5.7 307 18.3 102240 41
2010-06-23 07:15:41 51°14.993 2°54.531 5.7 315 18.3 102240 41
2010-06-23 07:15:47 51°15.011 2°54.511 5.5 301 18.3 102240 41
2010-06-23 07:15:51 51°15.022 2°54.496 5.6 316 18.2 102240 42
2010-06-23 07:15:56 51°15.037 2°54.479 5.6 306 18.2 102240 42
2010-06-23 07:16:01 51°15.051 2°54.461 5.4 30 18.2 102240 41
2010-06-23 07:16:07 51°15.069 2°54.44 5.4 300 18.2 102240 41
2010-06-23 07:16:11 51°15.081 2°54.426 5.4 316 18.2 102240 42
2010-06-23 07:16:16 51°15.095 2°54.409 5.8 305 18.2 102240 42
2010-06-23 07:16:21 51°15.11 2°54.392 5.4 316 18.2 102240 41
2010-06-23 07:16:26 51°15.125 2°54.375 5.1 307 18.2 102240 41
2010-06-23 07:16:31 51°15.14 2°54.358 5.3 317 18.1 102240 42
2010-06-23 07:16:36 51°15.155 2°54.34 5.4 308 18.1 102240 42
2010-06-23 07:16:41 51°15.169 2°54.323 5.6 318 18.1 102240 42
2010-06-23 07:16:46 51°15.183 2°54.305 5.9 301 18.1 102240 42
2010-06-23 07:16:51 51°15.198 2°54.287 5.4 316 18.1 102250 42
2010-06-23 07:16:56 51°15.213 2°54.269 5.9 300 18.1 102250 42
2010-06-23 07:17:01 51°15.227 2°54.252 5.5 316 18 102250 42
2010-06-23 07:17:06 51°15.242 2°54.234 5.5 308 18 102250 42
2010-06-23 07:17:11 51°15.257 2°54.216 5.6 316 18 102250 42
2010-06-23 07:17:16 51°15.271 2°54.199 5.6 309 18 102250 42
2010-06-23 07:17:21 51°15.286 2°54.181 3.3 317 18 102250 42
2010-06-23 07:17:26 51°15.301 2°54.164 5.3 309 18 102250 42
2010-06-23 07:17:31 51°15.316 2°54.146 5.3 317 18 102250 44
2010-06-23 07:17:36 51°15.331 2°54.129 5.4 309 18 102250 44
2010-06-23 07:17:41 51°15.345 2°54.111 5.8 316 18 102250 42
2010-06-23 07:17:46 51°15.36 2°54.094 5.3 307 18 102250 42
2010-06-23 07:17:51 51°15.375 2°54.076 5.5 316 18 102250 42
2010-06-23 07:17:56 51°15.389 2°54.058 5.8 306 18 102250 42
2010-06-23 07:18:01 51°15.404 2°54.039 5.8 317 17.9 102250 44
2010-06-23 07:18:06 51°15.418 2°54.021 5.9 305 17.9 102250 44
2010-06-23 07:18:11 51°15.432 2°54.003 5.7 317 17.9 102250 43
2010-06-23 07:18:16 51°15.447 2°53.984 6.2 305 17.9 102250 43
2010-06-23 07:18:21 51°15.461 2°53.965 5.6 317 17.9 102250 42
2010-06-23 07:18:26 51°15.475 2°53.946 5.7 303 17.9 102250 42
2010-06-23 07:18:31 51°15.489 2°53.927 5.6 317 17.9 102250 43
2010-06-23 07:18:36 51°15.503 2°53.909 5.9 307 17.9 102250 43
2010-06-23 07:18:41 51°15.517 2°53.89 5.6 317 17.8 102250 43
2010-06-23 07:18:46 51°15.531 2°53.872 5.7 305 17.8 102250 43
2010-06-23 07:18:51 51°15.546 2°53.853 5.5 318 17.8 102250 44
2010-06-23 07:18:56 51°15.56 2°53.835 6.1 304 17.8 102250 44
2010-06-23 07:19:01 51°15.574 2°53.816 6.5 319 17.8 102250 43
2010-06-23 07:19:06 51°15.588 2°53.797 5.7 301 17.8 102250 43
2010-06-23 07:19:12 51°15.605 2°53.775 6.1 318 17.8 102250 44
2010-06-23 07:19:16 51°15.616 2°53.76 5.9 307 17.8 102250 44
2010-06-23 07:19:21 51°15.63 2°53.742 5.7 318 17.8 102250 43
2010-06-23 07:19:26 51°15.644 2°53.723 6.1 306 17.8 102250 43
2010-06-23 07:19:31 51°15.658 2°53.705 5.9 317 17.8 102250 43
2010-06-23 07:19:36 51°15.672 2°53.687 6 301 17.8 102250 43
2010-06-23 07:19:41 51°15.687 2°53.669 5.8 318 17.7 102240 43
2010-06-23 07:19:46 51°15.701 2°53.65 5.7 300 17.7 102240 43
2010-06-23 07:19:51 51°15.715 2°53.632 5.6 319 17.7 102250 43
2010-06-23 07:19:56 51°15.729 2°53.614 5.7 308 17.7 102250 43
2010-06-23 07:20:01 51°15.743 2°53.595 5.8 318 17.7 102240 43
2010-06-23 07:20:06 51°15.758 2°53.577 5.8 300 17.7 102240 43
2010-06-23 07:20:11 51°15.772 2°53.558 6.3 318 17.7 102250 45
2010-06-23 07:20:16 51°15.786 2°53.54 6.3 302 17.7 102250 45
2010-06-23 07:20:21 51°15.8 2°53.522 6.5 319 17.7 102250 43
2010-06-23 07:20:26 51°15.814 2°53.504 5.9 309 17.7 102250 43
2010-06-23 07:20:31 51°15.828 2°53.485 6.1 317 17.7 102250 45
2010-06-23 07:20:36 51°15.843 2°53.466 5.9 300 17.7 102250 45
2010-06-23 07:20:40 51°15.854 2°53.452 6.2 320 17.6 102250 44
2010-06-23 07:20:46 51°15.871 2°53.43 5.6 309 17.6 102250 44
2010-06-23 07:20:51 51°15.885 2°53.412 6.2 321 17.6 102250 44
2010-06-23 07:20:56 51°15.899 2°53.394 6.2 307 17.6 102250 44
2010-06-23 07:21:01 51°15.913 2°53.376 6.2 320 17.6 102250 45
2010-06-23 07:21:06 51°15.927 2°53.358 5.7 305 17.6 102250 45
2010-06-23 07:21:11 51°15.942 2°53.34 6 320 17.6 102250 44
2010-06-23 07:21:16 51°15.956 2°53.322 5.6 303 17.6 102250 44
2010-06-23 07:21:21 51°15.97 2°53.304 5.9 319 17.6 102250 45
2010-06-23 07:21:26 51°15.984 2°53.286 6.2 302 17.6 102250 45
2010-06-23 07:21:31 51°15.999 2°53.268 6.9 321 17.6 102250 44
2010-06-23 07:21:36 51°16.013 2°53.25 6.3 302 17.6 102250 44
2010-06-23 07:21:41 51°16.027 2°53.233 5.8 317 17.6 102250 43
2010-06-23 07:21:46 51°16.042 2°53.217 5.8 310 17.6 102250 43
2010-06-23 07:21:51 51°16.057 2°53.2 5.7 320 17.6 102240 44
2010-06-23 07:21:56 51°16.072 2°53.184 5.7 307 17.6 102240 44
2010-06-23 07:22:01 51°16.087 2°53.168 6 320 17.6 102250 46
2010-06-23 07:22:06 51°16.103 2°53.154 5.6 309 17.6 102250 46
2010-06-23 07:22:11 51°16.118 2°53.138 5.8 320 17.6 102250 45
2010-06-23 07:22:16 51°16.134 2°53.124 5.2 305 17.6 102250 45
2010-06-23 07:22:21 51°16.15 2°53.109 5.9 319 17.5 102250 44
2010-06-23 07:22:26 51°16.166 2°53.096 5.6 300 17.5 102250 44
2010-06-23 07:22:31 51°16.182 2°53.082 5.3 319 17.5 102250 45
2010-06-23 07:22:36 51°16.199 2°53.07 5.6 308 17.5 102250 45
2010-06-23 07:22:41 51°16.215 2°53.057 5.1 318 17.5 102250 45
2010-06-23 07:22:46 51°16.232 2°53.045 5.5 307 17.5 102250 45
2010-06-23 07:22:51 51°16.248 2°53.033 5.3 319 17.5 102250 45
2010-06-23 07:22:56 51°16.265 2°53.022 5.3 305 17.5 102250 45
2010-06-23 07:23:01 51°16.282 2°53.011 5.1 319 17.5 102250 45
2010-06-23 07:23:06 51°16.299 2°53 5.4 301 17.5 102250 45
2010-06-23 07:23:11 51°16.316 2°52.989 5.3 319 17.4 102250 45
2010-06-23 07:23:16 51°16.333 2°52.978 5.6 303 17.4 102250 45
2010-06-23 07:23:21 51°16.35 2°52.968 5 319 17.4 102250 44
2010-06-23 07:23:26 51°16.367 2°52.957 5.2 305 17.4 102250 44
2010-06-23 07:23:31 51°16.384 2°52.946 5 317 17.4 102250 44
2010-06-23 07:23:36 51°16.401 2°52.936 5.4 308 17.4 102250 44
2010-06-23 07:23:40 51°16.414 2°52.927 5.6 317 17.4 102250 45
2010-06-23 07:23:46 51°16.434 2°52.914 5.6 304 17.4 102250 45
2010-06-23 07:23:51 51°16.451 2°52.903 5.6 317 17.4 102250 44
2010-06-23 07:23:56 51°16.468 2°52.891 5.5 302 17.4 102250 44
2010-06-23 07:24:01 51°16.485 2°52.88 5.1 317 17.3 102250 44
2010-06-23 07:24:06 51°16.502 2°52.869 5.8 307 17.3 102250 44
2010-06-23 07:24:12 51°16.522 2°52.855 5.5 315 17.3 102250 44
2010-06-23 07:24:16 51°16.535 2°52.845 4.8 300 17.3 102250 44
2010-06-23 07:24:21 51°16.551 2°52.834 5.4 316 17.3 102250 43
2010-06-23 07:24:26 51°16.568 2°52.821 5.8 309 17.3 102250 43
2010-06-23 07:24:31 51°16.584 2°52.809 5.3 318 17.3 102250 45
2010-06-23 07:24:36 51°16.601 2°52.796 5.5 304 17.3 102250 45
2010-06-23 07:24:41 51°16.617 2°52.784 5.3 29 17.2 102250 44
2010-06-23 07:24:46 51°16.634 2°52.772 5 301 17.2 102250 44
2010-06-23 07:24:51 51°16.65 2°52.759 5.1 317 17.2 102250 45
2010-06-23 07:24:56 51°16.666 2°52.746 5.2 302 17.2 102250 45
2010-06-23 07:25:01 51°16.683 2°52.734 5.2 316 17.2 102250 44
2010-06-23 07:25:06 51°16.699 2°52.721 5.3 308 17.2 102250 44
2010-06-23 07:25:11 51°16.715 2°52.709 5.2 315 17.2 102250 43
2010-06-23 07:25:16 51°16.732 2°52.697 5.3 303 17.2 102250 43
2010-06-23 07:25:21 51°16.748 2°52.684 5.7 316 17.1 102250 45
2010-06-23 07:25:26 51°16.764 2°52.672 4.9 301 17.1 102250 45
2010-06-23 07:25:31 51°16.781 2°52.66 5.2 317 17.1 102250 45
2010-06-23 07:25:36 51°16.797 2°52.648 5 308 17.1 102250 45
2010-06-23 07:25:41 51°16.813 2°52.635 5.3 319 17.1 102250 43
2010-06-23 07:25:46 51°16.829 2°52.623 4.9 307 17.1 102250 43
2010-06-23 07:25:51 51°16.845 2°52.61 5.2 316 17.1 102250 45
2010-06-23 07:25:56 51°16.862 2°52.598 5.2 301 17.1 102250 45
2010-06-23 07:26:01 51°16.878 2°52.585 5.4 318 17.1 102250 45
2010-06-23 07:26:06 51°16.894 2°52.573 5 306 17.1 102250 45
2010-06-23 07:26:12 51°16.914 2°52.557 4.8 315 17.1 102250 44
2010-06-23 07:26:16 51°16.926 2°52.547 5.1 304 17.1 102250 44
2010-06-23 07:26:21 51°16.943 2°52.535 5.2 316 17.1 102250 44
2010-06-23 07:26:26 51°16.959 2°52.522 5.2 308 17.1 102250 44
2010-06-23 07:26:31 51°16.975 2°52.51 5.3 317 17.1 102250 45
2010-06-23 07:26:36 51°16.991 2°52.497 5.1 303 17.1 102250 45
2010-06-23 07:26:41 51°17.008 2°52.484 5 21 17.1 102250 44
2010-06-23 07:26:46 51°17.024 2°52.472 5.2 306 17.1 102250 44
2010-06-23 07:26:51 51°17.04 2°52.459 5.2 21 17 102250 44
2010-06-23 07:26:56 51°17.056 2°52.447 5.2 306 17 102250 44
2010-06-23 07:27:01 51°17.073 2°52.434 4.9 316 17 102250 44
2010-06-23 07:27:06 51°17.089 2°52.422 5.3 307 17 102250 44
2010-06-23 07:27:11 51°17.105 2°52.409 5.1 317 17 102240 45
2010-06-23 07:27:16 51°17.121 2°52.396 5.4 308 17 102240 45
2010-06-23 07:27:21 51°17.138 2°52.384 5.5 316 17 102240 43
2010-06-23 07:27:26 51°17.154 2°52.371 4.7 308 17 102240 43
2010-06-23 07:27:31 51°17.17 2°52.358 5.2 317 17 102250 43
2010-06-23 07:27:36 51°17.187 2°52.345 5.1 309 17 102250 43
2010-06-23 07:27:41 51°17.203 2°52.332 4.8 316 17 102250 43
2010-06-23 07:27:47 51°17.222 2°52.317 5.1 306 17 102250 43
2010-06-23 07:27:51 51°17.235 2°52.307 4.9 316 17 102250 43
2010-06-23 07:27:56 51°17.252 2°52.295 5.3 300 17 102250 43
2010-06-23 07:28:01 51°17.268 2°52.282 5.2 316 16.9 102240 43
2010-06-23 07:28:06 51°17.285 2°52.27 4.8 302 16.9 102240 43
2010-06-23 07:28:11 51°17.301 2°52.257 5.5 316 16.9 102240 45
2010-06-23 07:28:16 51°17.317 2°52.244 5.8 307 16.9 102240 45
2010-06-23 07:28:21 51°17.334 2°52.23 5.1 316 16.9 102240 43
2010-06-23 07:28:26 51°17.35 2°52.218 5.4 306 16.9 102240 43
2010-06-23 07:28:32 51°17.369 2°52.202 5.7 317 16.9 102240 45
2010-06-23 07:28:36 51°17.382 2°52.191 5 301 16.9 102240 45
2010-06-23 07:28:41 51°17.399 2°52.179 5.1 318 16.9 102240 44
2010-06-23 07:28:46 51°17.415 2°52.166 5 308 16.9 102240 44
2010-06-23 07:28:51 51°17.431 2°52.154 5.1 316 16.9 102240 44
2010-06-23 07:28:56 51°17.448 2°52.141 4.9 305 16.9 102240 44
2010-06-23 07:29:01 51°17.464 2°52.128 4.8 317 16.9 102240 43
2010-06-23 07:29:06 51°17.48 2°52.116 4.8 301 16.9 102240 43
2010-06-23 07:29:11 51°17.496 2°52.103 5.5 23 16.9 102250 44
2010-06-23 07:29:16 51°17.513 2°52.09 5.6 303 16.9 102250 44
2010-06-23 07:29:21 51°17.529 2°52.078 5.1 25 16.9 102240 44
2010-06-23 07:29:26 51°17.545 2°52.065 5.4 305 16.9 102240 44
2010-06-23 07:29:31 51°17.561 2°52.052 5.2 23 16.9 102240 45
2010-06-23 07:29:36 51°17.577 2°52.04 5.2 306 16.9 102240 45
2010-06-23 07:29:41 51°17.594 2°52.028 4.9 24 16.8 102240 42
2010-06-23 07:29:46 51°17.61 2°52.015 4.7 302 16.8 102240 42
2010-06-23 07:29:51 51°17.626 2°52.002 5 26 16.8 102240 45
2010-06-23 07:29:56 51°17.642 2°51.99 5.3 308 16.8 102240 45
2010-06-23 07:30:01 51°17.658 2°51.977 4.6 22 16.8 102250 43
2010-06-23 07:30:06 51°17.675 2°51.965 5.5 306 16.8 102250 43
2010-06-23 07:30:11 51°17.691 2°51.952 5.3 20 16.8 102240 45
2010-06-23 07:30:16 51°17.707 2°51.94 4.9 309 16.8 102240 45
2010-06-23 07:30:21 51°17.723 2°51.927 5.2 23 16.8 102240 43
2010-06-23 07:30:26 51°17.739 2°51.915 5 301 16.8 102240 43
2010-06-23 07:30:31 51°17.755 2°51.903 5.3 23 16.8 102240 43
2010-06-23 07:30:36 51°17.771 2°51.89 4.9 303 16.8 102240 43
2010-06-23 07:30:41 51°17.788 2°51.878 5.4 28 16.7 102240 44
2010-06-23 07:30:46 51°17.804 2°51.866 4.7 304 16.7 102240 44
2010-06-23 07:30:51 51°17.82 2°51.853 4.9 29 16.7 102240 43
2010-06-23 07:30:56 51°17.836 2°51.84 5 300 16.7 102240 43
2010-06-23 07:31:00 51°17.849 2°51.831 4.7 315 16.7 102240 45
2010-06-23 07:31:06 51°17.869 2°51.816 4.9 309 16.7 102240 45
2010-06-23 07:31:11 51°17.885 2°51.803 5.3 28 16.7 102240 43
2010-06-23 07:31:16 51°17.901 2°51.791 5.3 302 16.7 102240 43
2010-06-23 07:31:21 51°17.917 2°51.779 5.3 27 16.7 102240 43
2010-06-23 07:31:26 51°17.934 2°51.766 4.9 307 16.7 102240 43
2010-06-23 07:31:31 51°17.95 2°51.755 4.8 23 16.7 102240 43
2010-06-23 07:31:36 51°17.967 2°51.742 4.8 308 16.7 102240 43
2010-06-23 07:31:41 51°17.983 2°51.73 5.6 315 16.7 102240 43
2010-06-23 07:31:46 51°17.999 2°51.717 5 306 16.7 102240 43
2010-06-23 07:31:51 51°18.015 2°51.705 5 315 16.7 102240 44
2010-06-23 07:31:56 51°18.032 2°51.692 5 306 16.7 102240 44
2010-06-23 07:32:01 51°18.048 2°51.68 5.2 316 16.7 102240 43
2010-06-23 07:32:06 51°18.064 2°51.667 5 307 16.7 102240 43
2010-06-23 07:32:11 51°18.08 2°51.654 5 317 16.7 102240 43
2010-06-23 07:32:16 51°18.096 2°51.642 5.1 307 16.7 102240 43
2010-06-23 07:32:21 51°18.112 2°51.629 5 317 16.7 102240 42
2010-06-23 07:32:26 51°18.128 2°51.616 4.9 300 16.7 102240 42
2010-06-23 07:32:31 51°18.144 2°51.603 4.6 23 16.7 102240 43
2010-06-23 07:32:36 51°18.161 2°51.59 5.5 305 16.7 102240 43
2010-06-23 07:32:41 51°18.177 2°51.578 5.5 316 16.7 102240 44
2010-06-23 07:32:46 51°18.193 2°51.565 5.6 308 16.7 102240 44
2010-06-23 07:32:51 51°18.209 2°51.552 5.3 316 16.7 102240 44
2010-06-23 07:32:56 51°18.225 2°51.539 5.3 307 16.7 102240 44
2010-06-23 07:33:01 51°18.241 2°51.525 5.1 315 16.7 102240 43
2010-06-23 07:33:06 51°18.257 2°51.511 5.7 307 16.7 102240 43
2010-06-23 07:33:12 51°18.275 2°51.493 4.8 26 16.7 102240 45
2010-06-23 07:33:16 51°18.288 2°51.482 5.9 305 16.7 102240 45
2010-06-23 07:33:21 51°18.303 2°51.466 5.4 316 16.7 102240 45
2010-06-23 07:33:26 51°18.318 2°51.45 5.5 303 16.7 102240 45
2010-06-23 07:33:31 51°18.333 2°51.434 6.1 24 16.7 102240 45
2010-06-23 07:33:36 51°18.348 2°51.419 6 305 16.7 102240 45
2010-06-23 07:33:41 51°18.363 2°51.402 5.6 317 16.7 102240 45
2010-06-23 07:33:46 51°18.378 2°51.387 5.6 280 16.7 102240 45
2010-06-23 07:33:51 51°18.393 2°51.371 5.7 316 16.7 102240 44
2010-06-23 07:33:56 51°18.408 2°51.355 5.4 301 16.7 102240 44
2010-06-23 07:34:01 51°18.423 2°51.339 5.6 316 16.7 102240 43
2010-06-23 07:34:06 51°18.438 2°51.323 6 303 16.7 102240 43
2010-06-23 07:34:11 51°18.453 2°51.307 5.7 26 16.7 102240 43
2010-06-23 07:34:16 51°18.468 2°51.291 5.5 308 16.7 102240 43
2010-06-23 07:34:21 51°18.483 2°51.275 5.6 29 16.7 102240 43
2010-06-23 07:34:26 51°18.498 2°51.258 5.7 308 16.7 102240 43
2010-06-23 07:34:31 51°18.513 2°51.243 5.5 22 16.7 102240 45
2010-06-23 07:34:36 51°18.528 2°51.227 5.5 301 16.7 102240 45
2010-06-23 07:34:41 51°18.544 2°51.211 6.1 315 16.6 102240 43
2010-06-23 07:34:46 51°18.559 2°51.195 6.2 305 16.6 102240 43
2010-06-23 07:34:51 51°18.574 2°51.179 5.8 25 16.6 102240 43
2010-06-23 07:34:56 51°18.589 2°51.163 5.2 301 16.6 102240 43
2010-06-23 07:35:01 51°18.604 2°51.147 6 315 16.6 102240 42
2010-06-23 07:35:06 51°18.619 2°51.131 5.3 301 16.6 102240 42
2010-06-23 07:35:12 51°18.638 2°51.112 6 315 16.6 102230 45
2010-06-23 07:35:16 51°18.65 2°51.1 5.9 306 16.6 102230 45
2010-06-23 07:35:21 51°18.665 2°51.084 6.2 316 16.6 102230 43
2010-06-23 07:35:26 51°18.68 2°51.068 5.1 303 16.6 102230 43
2010-06-23 07:35:31 51°18.695 2°51.052 5.1 23 16.6 102230 44
2010-06-23 07:35:36 51°18.71 2°51.036 5.2 307 16.6 102230 44
2010-06-23 07:35:41 51°18.725 2°51.02 5.3 26 16.6 102230 43
2010-06-23 07:35:46 51°18.741 2°51.004 5.3 278 16.6 102230 43
2010-06-23 07:35:51 51°18.756 2°50.988 5.3 26 16.5 102230 43
2010-06-23 07:35:56 51°18.771 2°50.972 5.3 300 16.5 102230 43
2010-06-23 07:36:01 51°18.786 2°50.956 5.2 28 16.5 102230 45
2010-06-23 07:36:06 51°18.801 2°50.94 5.6 306 16.5 102230 45
2010-06-23 07:36:11 51°18.816 2°50.924 5.3 315 16.5 102230 45
2010-06-23 07:36:16 51°18.832 2°50.909 5.5 307 16.5 102230 45
2010-06-23 07:36:21 51°18.847 2°50.893 5.2 26 16.5 102230 43
2010-06-23 07:36:26 51°18.862 2°50.877 5.3 306 16.5 102230 43
2010-06-23 07:36:31 51°18.878 2°50.862 5.1 23 16.5 102230 44
2010-06-23 07:36:36 51°18.893 2°50.846 5.3 307 16.5 102230 44
2010-06-23 07:36:41 51°18.908 2°50.831 5.8 28 16.5 102230 44
2010-06-23 07:36:46 51°18.924 2°50.815 5.5 282 16.5 102230 44
2010-06-23 07:36:51 51°18.939 2°50.799 5.3 24 16.5 102230 44
2010-06-23 07:36:56 51°18.954 2°50.783 5.6 303 16.5 102230 44
2010-06-23 07:37:01 51°18.969 2°50.767 5.6 315 16.5 102230 45
2010-06-23 07:37:06 51°18.984 2°50.751 5.5 308 16.5 102230 45
2010-06-23 07:37:12 51°19.003 2°50.732 5.7 24 16.5 102230 44
2010-06-23 07:37:16 51°19.015 2°50.719 5.8 308 16.5 102230 44
2010-06-23 07:37:21 51°19.03 2°50.703 5.3 317 16.5 102230 44
2010-06-23 07:37:26 51°19.046 2°50.687 5.6 307 16.5 102230 44
2010-06-23 07:37:31 51°19.061 2°50.672 5.3 315 16.5 102230 45
2010-06-23 07:37:36 51°19.077 2°50.656 5.8 305 16.5 102230 45
2010-06-23 07:37:41 51°19.092 2°50.641 5.8 26 16.5 102230 43
2010-06-23 07:37:46 51°19.107 2°50.626 5.7 306 16.5 102230 43
2010-06-23 07:37:51 51°19.123 2°50.611 5.4 30 16.5 102230 43
2010-06-23 07:37:56 51°19.139 2°50.596 5.5 307 16.5 102230 43
2010-06-23 07:38:01 51°19.154 2°50.58 5.6 22 16.5 102230 43
2010-06-23 07:38:06 51°19.169 2°50.565 6 302 16.5 102230 43
2010-06-23 07:38:11 51°19.185 2°50.549 5.3 26 16.4 102230 44
2010-06-23 07:38:16 51°19.2 2°50.534 5.6 309 16.4 102230 44
2010-06-23 07:38:21 51°19.215 2°50.519 5.8 21 16.4 102230 45
2010-06-23 07:38:26 51°19.231 2°50.504 5.8 307 16.4 102230 45
2010-06-23 07:38:31 51°19.246 2°50.488 5.7 22 16.4 102230 45
2010-06-23 07:38:36 51°19.262 2°50.473 5.7 301 16.4 102230 45
2010-06-23 07:38:40 51°19.274 2°50.461 5.6 316 16.4 102230 45
2010-06-23 07:38:46 51°19.293 2°50.443 5.3 282 16.4 102230 45
2010-06-23 07:38:51 51°19.308 2°50.428 5.3 316 16.4 102230 43
2010-06-23 07:38:56 51°19.323 2°50.412 5.2 304 16.4 102230 43
2010-06-23 07:39:01 51°19.339 2°50.397 5.6 23 16.4 102230 45
2010-06-23 07:39:06 51°19.354 2°50.382 5.6 306 16.4 102230 45
2010-06-23 07:39:11 51°19.369 2°50.366 5 24 16.4 102230 45
2010-06-23 07:39:16 51°19.385 2°50.351 5.3 307 16.4 102230 45
2010-06-23 07:39:21 51°19.4 2°50.336 5.7 28 16.4 102230 43
2010-06-23 07:39:26 51°19.415 2°50.32 5.9 307 16.4 102230 43
2010-06-23 07:39:31 51°19.43 2°50.303 6.6 315 16.4 102230 44
2010-06-23 07:39:36 51°19.445 2°50.287 5.4 308 16.4 102230 44
2010-06-23 07:39:41 51°19.459 2°50.27 5.7 315 16.4 102230 43
2010-06-23 07:39:46 51°19.474 2°50.253 6.2 308 16.4 102230 43
2010-06-23 07:39:52 51°19.491 2°50.232 6.2 22 16.3 102230 43
2010-06-23 07:39:56 51°19.502 2°50.218 6.3 303 16.3 102230 43
2010-06-23 07:40:00 51°19.514 2°50.203 6.4 316 16.3 102230 45
2010-06-23 07:40:06 51°19.531 2°50.183 6.1 307 16.3 102230 45
2010-06-23 07:40:11 51°19.545 2°50.165 6.3 316 16.3 102230 43
2010-06-23 07:40:16 51°19.56 2°50.147 5.9 308 16.3 102230 43
2010-06-23 07:40:21 51°19.574 2°50.13 5.2 29 16.3 102230 43
2010-06-23 07:40:26 51°19.588 2°50.112 6.2 300 16.3 102230 43
2010-06-23 07:40:31 51°19.602 2°50.094 6.1 21 16.3 102230 44
2010-06-23 07:40:36 51°19.617 2°50.077 6 308 16.3 102230 44
2010-06-23 07:40:41 51°19.631 2°50.059 6.6 315 16.3 102230 43
2010-06-23 07:40:46 51°19.645 2°50.041 6 282 16.3 102230 43
2010-06-23 07:40:51 51°19.66 2°50.024 5.9 316 16.3 102230 43
2010-06-23 07:40:56 51°19.674 2°50.006 5.9 309 16.3 102230 43
2010-06-23 07:41:01 51°19.688 2°49.988 6.3 20 16.3 102230 43
2010-06-23 07:41:06 51°19.703 2°49.97 5.9 303 16.3 102230 43
2010-06-23 07:41:11 51°19.717 2°49.952 6.4 317 16.3 102230 45
2010-06-23 07:41:16 51°19.731 2°49.934 6.6 301 16.3 102230 45
2010-06-23 07:41:21 51°19.746 2°49.916 6 316 16.3 102230 45
2010-06-23 07:41:26 51°19.76 2°49.899 6 308 16.3 102230 45
2010-06-23 07:41:31 51°19.774 2°49.881 5.6 315 16.3 102240 44
2010-06-23 07:41:36 51°19.789 2°49.863 5.7 300 16.3 102240 44
2010-06-23 07:41:41 51°19.803 2°49.845 5.8 24 16.3 102230 43
2010-06-23 07:41:46 51°19.818 2°49.827 5.7 306 16.3 102230 43
2010-06-23 07:41:51 51°19.832 2°49.81 6.3 315 16.3 102230 44
2010-06-23 07:41:56 51°19.847 2°49.792 6.2 300 16.3 102230 44
2010-06-23 07:42:01 51°19.861 2°49.774 5.8 315 16.3 102240 43
2010-06-23 07:42:06 51°19.875 2°49.757 5.5 307 16.3 102240 43
2010-06-23 07:42:11 51°19.89 2°49.739 6.2 316 16.3 102230 43
2010-06-23 07:42:16 51°19.905 2°49.722 6.2 307 16.3 102230 43
2010-06-23 07:42:21 51°19.919 2°49.704 5.9 316 16.3 102230 45
2010-06-23 07:42:26 51°19.934 2°49.686 5.3 308 16.3 102230 45
2010-06-23 07:42:31 51°19.948 2°49.668 6.1 316 16.3 102230 44
2010-06-23 07:42:36 51°19.962 2°49.65 5.6 307 16.3 102230 44
2010-06-23 07:42:41 51°19.977 2°49.633 6.2 316 16.3 102230 45
2010-06-23 07:42:46 51°19.992 2°49.615 6 285 16.3 102230 45
2010-06-23 07:42:51 51°20.006 2°49.597 6.1 317 16.3 102240 44
2010-06-23 07:42:56 51°20.021 2°49.579 5.8 303 16.3 102240 44
2010-06-23 07:43:01 51°20.035 2°49.562 5.9 315 16.3 102230 44
2010-06-23 07:43:06 51°20.05 2°49.544 6.8 308 16.3 102230 44
2010-06-23 07:43:11 51°20.064 2°49.526 5.3 315 16.3 102230 44
2010-06-23 07:43:16 51°20.079 2°49.508 6.1 306 16.3 102230 44
2010-06-23 07:43:21 51°20.094 2°49.49 5.7 30 16.3 102230 43
2010-06-23 07:43:26 51°20.108 2°49.473 7.1 306 16.3 102230 43
2010-06-23 07:43:31 51°20.123 2°49.455 6 317 16.3 102230 44
2010-06-23 07:43:36 51°20.138 2°49.437 6.1 307 16.3 102230 44
2010-06-23 07:43:41 51°20.152 2°49.419 5.7 315 16.3 102230 44
2010-06-23 07:43:46 51°20.167 2°49.401 6.5 302 16.3 102230 44
2010-06-23 07:43:51 51°20.182 2°49.383 6.3 317 16.3 102230 44
2010-06-23 07:43:56 51°20.196 2°49.365 6 301 16.3 102230 44
2010-06-23 07:44:01 51°20.211 2°49.347 5.9 317 16.3 102230 44
2010-06-23 07:44:06 51°20.226 2°49.329 6.4 308 16.3 102230 44
2010-06-23 07:44:11 51°20.24 2°49.311 6.4 316 16.3 102230 44
2010-06-23 07:44:16 51°20.255 2°49.293 6.5 305 16.3 102230 44
2010-06-23 07:44:21 51°20.27 2°49.275 6.5 315 16.3 102240 44
2010-06-23 07:44:26 51°20.285 2°49.257 6.2 308 16.3 102240 44
2010-06-23 07:44:31 51°20.299 2°49.239 6 22 16.3 102230 45
2010-06-23 07:44:36 51°20.314 2°49.221 6.2 304 16.3 102230 45
2010-06-23 07:44:40 51°20.326 2°49.206 6.7 316 16.3 102230 43
2010-06-23 07:44:46 51°20.344 2°49.185 5.6 277 16.3 102230 43
2010-06-23 07:44:51 51°20.358 2°49.167 5.9 316 16.3 102230 43
2010-06-23 07:44:56 51°20.373 2°49.149 5.3 307 16.3 102230 43
2010-06-23 07:45:01 51°20.388 2°49.131 5.8 22 16.3 102230 45
2010-06-23 07:45:06 51°20.403 2°49.113 6.4 301 16.3 102230 45
2010-06-23 07:45:11 51°20.418 2°49.095 6.2 316 16.3 102230 45
2010-06-23 07:45:16 51°20.433 2°49.077 6.2 299 16.3 102230 45
2010-06-23 07:45:21 51°20.448 2°49.059 6.6 29 16.3 102230 44
2010-06-23 07:45:26 51°20.463 2°49.042 6.5 299 16.3 102230 44
2010-06-23 07:45:31 51°20.478 2°49.023 6.2 315 16.3 102230 44
2010-06-23 07:45:36 51°20.493 2°49.005 6.1 307 16.3 102230 44
2010-06-23 07:45:41 51°20.508 2°48.988 6.3 24 16.3 102230 43
2010-06-23 07:45:46 51°20.523 2°48.97 6.8 301 16.3 102230 43
2010-06-23 07:45:51 51°20.538 2°48.951 5.9 315 16.2 102230 44
2010-06-23 07:45:56 51°20.553 2°48.934 7 302 16.2 102230 44
2010-06-23 07:46:01 51°20.568 2°48.916 5.9 21 16.2 102230 43
2010-06-23 07:46:06 51°20.583 2°48.898 5.8 306 16.2 102230 43
2010-06-23 07:46:11 51°20.598 2°48.88 5.9 316 16.2 102230 44
2010-06-23 07:46:16 51°20.613 2°48.862 6.4 306 16.2 102230 44
2010-06-23 07:46:21 51°20.628 2°48.844 6.2 316 16.2 102230 44
2010-06-23 07:46:26 51°20.643 2°48.826 6.5 306 16.2 102230 44
2010-06-23 07:46:31 51°20.658 2°48.808 6.8 24 16.2 102230 44
2010-06-23 07:46:36 51°20.673 2°48.79 5.9 301 16.2 102230 44
2010-06-23 07:46:41 51°20.688 2°48.772 5.8 23 16.2 102230 44
2010-06-23 07:46:46 51°20.703 2°48.755 6.3 284 16.2 102230 44
2010-06-23 07:46:51 51°20.718 2°48.737 5.6 28 16.2 102230 44
2010-06-23 07:46:56 51°20.733 2°48.719 6.3 306 16.2 102230 44
2010-06-23 07:47:01 51°20.748 2°48.701 6.2 24 16.2 102230 44
2010-06-23 07:47:06 51°20.763 2°48.684 5.9 307 16.2 102230 44
2010-06-23 07:47:11 51°20.778 2°48.666 6 27 16.2 102220 45
2010-06-23 07:47:16 51°20.793 2°48.649 6.1 305 16.2 102220 45
2010-06-23 07:47:21 51°20.808 2°48.631 6.7 29 16.2 102230 43
2010-06-23 07:47:26 51°20.823 2°48.613 6 308 16.2 102230 43
2010-06-23 07:47:31 51°20.838 2°48.596 6.3 20 16.2 102230 43
2010-06-23 07:47:36 51°20.853 2°48.578 6 301 16.2 102230 43
2010-06-23 07:47:40 51°20.865 2°48.564 6.3 27 16.2 102230 44
2010-06-23 07:47:46 51°20.883 2°48.543 5.7 306 16.2 102230 44
2010-06-23 07:47:51 51°20.898 2°48.526 6.4 22 16.2 102230 45
2010-06-23 07:47:56 51°20.913 2°48.508 3.3 302 16.2 102230 45
2010-06-23 07:48:01 51°20.928 2°48.491 6.6 24 16.2 102220 43
2010-06-23 07:48:06 51°20.942 2°48.473 5.6 307 16.2 102220 43
2010-06-23 07:48:11 51°20.957 2°48.456 5.9 23 16.2 102230 43
2010-06-23 07:48:16 51°20.972 2°48.439 6 301 16.2 102230 43
2010-06-23 07:48:21 51°20.987 2°48.422 5.6 28 16.2 102230 43
2010-06-23 07:48:26 51°21.002 2°48.405 6.1 306 16.2 102230 43
2010-06-23 07:48:31 51°21.016 2°48.388 6.7 22 16.2 102230 44
2010-06-23 07:48:36 51°21.031 2°48.371 6 306 16.2 102230 44
2010-06-23 07:48:41 51°21.046 2°48.355 6.5 30 16.1 102230 45
2010-06-23 07:48:46 51°21.061 2°48.338 5.9 283 16.1 102230 45
2010-06-23 07:48:51 51°21.075 2°48.321 6.1 24 16.1 102230 42
2010-06-23 07:48:56 51°21.09 2°48.304 5.6 304 16.1 102230 42
2010-06-23 07:49:00 51°21.102 2°48.29 5.8 28 16.1 102230 43
2010-06-23 07:49:06 51°21.119 2°48.27 5.7 306 16.1 102230 43
2010-06-23 07:49:11 51°21.134 2°48.253 6.1 23 16.2 102230 43
2010-06-23 07:49:16 51°21.149 2°48.236 6.5 309 16.2 102230 43
2010-06-23 07:49:21 51°21.164 2°48.219 6.4 23 16.1 102230 43
2010-06-23 07:49:26 51°21.178 2°48.202 5.6 309 16.1 102230 43
2010-06-23 07:49:31 51°21.193 2°48.185 6.1 26 16.1 102230 43
2010-06-23 07:49:36 51°21.207 2°48.168 6.6 307 16.1 102230 43
2010-06-23 07:49:40 51°21.219 2°48.154 6.4 24 16.1 102230 45
2010-06-23 07:49:46 51°21.237 2°48.134 5.6 306 16.1 102230 45
2010-06-23 07:49:51 51°21.252 2°48.117 6.2 24 16.1 102230 44
2010-06-23 07:49:56 51°21.267 2°48.1 6 304 16.1 102230 44
2010-06-23 07:50:00 51°21.278 2°48.086 5.7 23 16.1 102230 45
2010-06-23 07:50:06 51°21.296 2°48.066 5.6 305 16.1 102230 45
2010-06-23 07:50:11 51°21.311 2°48.049 5.5 22 16.1 102230 44
2010-06-23 07:50:16 51°21.326 2°48.032 5.5 308 16.1 102230 44
2010-06-23 07:50:20 51°21.338 2°48.018 5.8 28 16.1 102220 43
2010-06-23 07:50:26 51°21.355 2°47.998 5.8 32 16.1 102220 43
2010-06-23 07:50:31 51°21.37 2°47.981 5.7 20 16.1 102230 44
2010-06-23 07:50:36 51°21.385 2°47.964 6.2 301 16.1 102230 44
2010-06-23 07:50:40 51°21.397 2°47.95 5.8 24 16.1 102230 44
2010-06-23 07:50:46 51°21.414 2°47.93 5.8 309 16.1 102230 44
2010-06-23 07:50:51 51°21.429 2°47.913 6 28 16.1 102230 43
2010-06-23 07:50:56 51°21.444 2°47.896 6.6 303 16.1 102230 43
2010-06-23 07:51:00 51°21.456 2°47.882 6.3 23 16.1 102230 42
2010-06-23 07:51:06 51°21.474 2°47.864 6 302 16.1 102230 42
2010-06-23 07:51:11 51°21.489 2°47.847 6.6 21 16.1 102230 44
2010-06-23 07:51:16 51°21.504 2°47.832 6.4 41 16.1 102230 44
2010-06-23 07:51:20 51°21.517 2°47.82 6.2 24 16.1 102230 43
2010-06-23 07:51:26 51°21.535 2°47.802 5.7 308 16.1 102230 43
2010-06-23 07:51:31 51°21.551 2°47.787 6.2 23 16.1 102230 43
2010-06-23 07:51:36 51°21.567 2°47.773 5.6 303 16.1 102230 43
2010-06-23 07:51:40 51°21.579 2°47.761 5.7 28 16.1 102230 43
2010-06-23 07:51:46 51°21.598 2°47.744 6.1 308 16.1 102230 43
2010-06-23 07:51:51 51°21.614 2°47.729 6.2 21 16.1 102230 43
2010-06-23 07:51:56 51°21.63 2°47.715 5.8 305 16.1 102230 43
2010-06-23 07:52:00 51°21.642 2°47.703 5.9 22 16.1 102230 44
2010-06-23 07:52:06 51°21.661 2°47.686 5.5 300 16.1 102230 44
2010-06-23 07:52:11 51°21.677 2°47.672 5.7 24 16.1 102230 43
2010-06-23 07:52:16 51°21.693 2°47.657 5.3 308 16.1 102230 43
2010-06-23 07:52:20 51°21.706 2°47.646 5.9 27 16.1 102230 43
2010-06-23 07:52:26 51°21.724 2°47.628 5.7 300 16.1 102230 43
2010-06-23 07:52:31 51°21.74 2°47.613 5.9 23 16.1 102240 43
2010-06-23 07:52:36 51°21.756 2°47.599 6.1 308 16.1 102240 43
2010-06-23 07:52:40 51°21.769 2°47.587 5.6 28 16.1 102230 43
2010-06-23 07:52:46 51°21.788 2°47.57 5.9 37 16.1 102230 43
2010-06-23 07:52:51 51°21.804 2°47.556 6 27 16 102230 44
2010-06-23 07:52:56 51°21.819 2°47.541 5.5 307 16 102230 44
2010-06-23 07:53:00 51°21.832 2°47.53 5.7 20 16 102230 44
2010-06-23 07:53:06 51°21.851 2°47.512 5.9 305 16 102230 44
2010-06-23 07:53:11 51°21.867 2°47.498 5.9 25 16 102230 44
2010-06-23 07:53:16 51°21.883 2°47.483 6.6 304 16 102230 44
2010-06-23 07:53:20 51°21.896 2°47.472 5.6 19 16 102230 43
2010-06-23 07:53:26 51°21.914 2°47.454 5.8 303 16 102230 43
2010-06-23 07:53:31 51°21.93 2°47.439 5.9 23 16 102230 45
2010-06-23 07:53:36 51°21.946 2°47.424 6.8 31 16 102230 45
2010-06-23 07:53:40 51°21.958 2°47.412 5.8 25 16 102230 43
2010-06-23 07:53:46 51°21.977 2°47.394 6.2 309 16 102230 43
2010-06-23 07:53:51 51°21.993 2°47.38 6.2 21 16 102230 44
2010-06-23 07:53:56 51°22.009 2°47.365 6.3 300 16 102230 44
2010-06-23 07:54:00 51°22.021 2°47.354 6.3 26 16 102230 45
2010-06-23 07:54:06 51°22.04 2°47.336 6.4 308 16 102230 45
2010-06-23 07:54:11 51°22.056 2°47.321 6 28 16 102230 43
2010-06-23 07:54:16 51°22.071 2°47.306 6.5 307 16 102230 43
2010-06-23 07:54:20 51°22.084 2°47.294 6.3 27 16 102230 43
2010-06-23 07:54:26 51°22.103 2°47.276 6.3 309 16 102230 43
2010-06-23 07:54:31 51°22.118 2°47.261 6 28 16 102230 43
2010-06-23 07:54:36 51°22.134 2°47.247 6.2 308 16 102230 43
2010-06-23 07:54:40 51°22.146 2°47.233 6.5 26 16 102230 43
2010-06-23 07:54:46 51°22.164 2°47.215 6.4 281 16 102230 43
2010-06-23 07:54:51 51°22.179 2°47.198 6.8 24 16 102240 44
2010-06-23 07:54:56 51°22.194 2°47.182 6.6 302 16 102240 44
2010-06-23 07:55:00 51°22.206 2°47.167 6.9 29 16 102230 44
2010-06-23 07:55:06 51°22.223 2°47.147 6.5 307 16 102230 44
2010-06-23 07:55:11 51°22.238 2°47.129 6.5 23 16 102240 45
2010-06-23 07:55:16 51°22.252 2°47.112 6.4 305 16 102240 45
2010-06-23 07:55:20 51°22.264 2°47.098 6.4 23 16 102230 44
2010-06-23 07:55:26 51°22.281 2°47.077 6.2 305 16 102230 44
2010-06-23 07:55:31 51°22.295 2°47.059 6.2 30 16 102240 44
2010-06-23 07:55:36 51°22.31 2°47.041 6.9 39 16 102240 44
2010-06-23 07:55:40 51°22.321 2°47.027 6.5 24 16 102230 43
2010-06-23 07:55:46 51°22.339 2°47.006 6.8 305 16 102230 43
2010-06-23 07:55:51 51°22.353 2°46.988 6.7 23 16 102240 43
2010-06-23 07:55:56 51°22.368 2°46.971 6.3 40 16 102240 43
2010-06-23 07:56:00 51°22.379 2°46.957 7 26 16 102240 43
2010-06-23 07:56:06 51°22.397 2°46.936 6.5 306 16 102240 43
2010-06-23 07:56:11 51°22.411 2°46.918 6.8 28 16 102240 43
2010-06-23 07:56:16 51°22.425 2°46.901 6.4 304 16 102240 43
2010-06-23 07:56:20 51°22.437 2°46.887 6.4 22 16 102230 42
2010-06-23 07:56:26 51°22.454 2°46.866 6.2 308 16 102230 42
2010-06-23 07:56:31 51°22.469 2°46.848 6.5 27 16 102230 43
2010-06-23 07:56:36 51°22.483 2°46.83 6.3 305 16 102230 43
2010-06-23 07:56:40 51°22.495 2°46.816 6.5 28 16 102230 43
2010-06-23 07:56:46 51°22.512 2°46.795 6.1 302 16 102230 43
2010-06-23 07:56:51 51°22.526 2°46.777 6 21 16 102230 44
2010-06-23 07:56:56 51°22.541 2°46.76 5.8 303 16 102230 44
2010-06-23 07:57:00 51°22.552 2°46.746 6.8 29 16 102230 43
2010-06-23 07:57:06 51°22.57 2°46.725 6.1 35 16 102230 43
2010-06-23 07:57:11 51°22.584 2°46.707 6.5 23 16 102230 43
2010-06-23 07:57:16 51°22.599 2°46.69 6 300 16 102230 43
2010-06-23 07:57:20 51°22.61 2°46.676 6.5 21 16 102230 43
2010-06-23 07:57:26 51°22.628 2°46.655 6.2 308 16 102230 43
2010-06-23 07:57:31 51°22.642 2°46.638 6.4 21 16 102230 44
2010-06-23 07:57:36 51°22.657 2°46.621 6.3 303 16 102230 44
2010-06-23 07:57:40 51°22.669 2°46.607 5.9 28 16 102230 43
2010-06-23 07:57:46 51°22.686 2°46.587 6.5 300 16 102230 43
2010-06-23 07:57:51 51°22.701 2°46.57 5.8 28 16 102230 45
2010-06-23 07:57:56 51°22.715 2°46.552 5.8 31 16 102230 45
2010-06-23 07:58:00 51°22.727 2°46.538 5.9 23 16 102230 43
2010-06-23 07:58:06 51°22.744 2°46.517 5.9 300 16 102230 43
2010-06-23 07:58:11 51°22.758 2°46.499 6.4 24 16 102230 43
2010-06-23 07:58:16 51°22.772 2°46.481 6.2 33 16 102230 43
2010-06-23 07:58:20 51°22.784 2°46.466 6.9 27 16 102230 44
2010-06-23 07:58:26 51°22.8 2°46.443 5.8 307 16 102230 44
2010-06-23 07:58:31 51°22.814 2°46.425 6.2 26 16 102230 43
2010-06-23 07:58:36 51°22.827 2°46.405 6.3 307 16 102230 43
2010-06-23 07:58:40 51°22.839 2°46.39 6.4 26 15.9 102230 45
2010-06-23 07:58:46 51°22.855 2°46.367 6.9 283 15.9 102230 45
2010-06-23 07:58:51 51°22.869 2°46.348 6.5 29 15.9 102230 44
2010-06-23 07:58:56 51°22.882 2°46.328 6.5 303 15.9 102230 44
2010-06-23 07:59:00 51°22.894 2°46.313 6.8 24 15.9 102230 42
2010-06-23 07:59:06 51°22.91 2°46.29 6.8 302 15.9 102230 42
2010-06-23 07:59:11 51°22.924 2°46.27 6.9 24 15.9 102230 43
2010-06-23 07:59:16 51°22.938 2°46.251 6.7 301 15.9 102230 43
2010-06-23 07:59:20 51°22.949 2°46.236 6.2 28 15.9 102230 43
2010-06-23 07:59:26 51°22.965 2°46.212 6.2 307 15.9 102230 43
2010-06-23 07:59:31 51°22.979 2°46.193 6.6 27 16 102230 45
2010-06-23 07:59:36 51°22.993 2°46.174 6.1 308 16 102230 45
2010-06-23 07:59:41 51°23.006 2°46.154 6.8 23 15.9 102230 43
2010-06-23 07:59:46 51°23.02 2°46.135 7.3 303 15.9 102230 43
2010-06-23 07:59:51 51°23.034 2°46.116 6.5 25 15.9 102230 43
2010-06-23 07:59:56 51°23.047 2°46.096 6 304 15.9 102230 43
2010-06-23 08:00:01 51°23.061 2°46.077 6 27 15.9 102230 45
2010-06-23 08:00:06 51°23.075 2°46.057 6.3 306 15.9 102230 45
2010-06-23 08:00:11 51°23.089 2°46.038 6.2 24 15.9 102230 43
2010-06-23 08:00:16 51°23.103 2°46.019 6.4 35 15.9 102230 43
2010-06-23 08:00:21 51°23.117 2°45.999 6.4 28 15.9 102230 43
2010-06-23 08:00:26 51°23.13 2°45.98 6.7 309 15.9 102230 43
2010-06-23 08:00:31 51°23.144 2°45.96 6.8 23 15.9 102230 45
2010-06-23 08:00:36 51°23.158 2°45.941 6.5 307 15.9 102230 45
2010-06-23 08:00:41 51°23.171 2°45.922 6.3 25 15.9 102230 43
2010-06-23 08:00:47 51°23.188 2°45.899 6.5 283 15.9 102230 43
2010-06-23 08:00:51 51°23.199 2°45.883 6.2 30 15.9 102230 45
2010-06-23 08:00:56 51°23.213 2°45.864 6.6 305 15.9 102230 45
2010-06-23 08:01:01 51°23.226 2°45.844 6.1 21 15.9 102220 44
2010-06-23 08:01:06 51°23.24 2°45.824 6.4 306 15.9 102220 44
2010-06-23 08:01:11 51°23.254 2°45.805 6.4 26 15.9 102220 45
2010-06-23 08:01:16 51°23.267 2°45.785 6.6 305 15.9 102220 45
2010-06-23 08:01:21 51°23.281 2°45.766 6.6 24 15.9 102230 45
2010-06-23 08:01:26 51°23.295 2°45.746 6.1 37 15.9 102230 45
2010-06-23 08:01:31 51°23.309 2°45.727 6.2 23 15.9 102230 44
2010-06-23 08:01:36 51°23.322 2°45.707 6.1 304 15.9 102230 44
2010-06-23 08:01:41 51°23.336 2°45.688 7 27 15.9 102230 42
2010-06-23 08:01:46 51°23.35 2°45.668 6 284 15.9 102230 42
2010-06-23 08:01:52 51°23.366 2°45.644 6 28 15.9 102230 45
2010-06-23 08:01:56 51°23.377 2°45.629 6.4 303 15.9 102230 45
2010-06-23 08:02:01 51°23.391 2°45.609 5.9 23 15.9 102220 44
2010-06-23 08:02:06 51°23.405 2°45.59 6.3 308 15.9 102220 44
2010-06-23 08:02:11 51°23.419 2°45.57 6.2 30 15.9 102230 45
2010-06-23 08:02:16 51°23.433 2°45.551 6.2 307 15.9 102230 45
2010-06-23 08:02:21 51°23.446 2°45.531 6.3 22 15.9 102230 44
2010-06-23 08:02:26 51°23.46 2°45.512 6.7 308 15.9 102230 44
2010-06-23 08:02:31 51°23.474 2°45.492 6.1 23 15.9 102230 43
2010-06-23 08:02:36 51°23.488 2°45.473 6.2 304 15.9 102230 43
2010-06-23 08:02:41 51°23.502 2°45.454 5.8 23 15.9 102220 44
2010-06-23 08:02:46 51°23.516 2°45.435 5.8 36 15.9 102220 44
2010-06-23 08:02:51 51°23.529 2°45.416 5.9 25 15.9 102230 44
2010-06-23 08:02:56 51°23.544 2°45.397 5.8 300 15.9 102230 44